Home > Weather > Dietzenbach > Past weeks

Flag for Germany Past Weather in Dietzenbach, Hesse, Germany — Yesterday and Last 2 Weeks

Now
75 °F

Broken clouds.


Feels Like: 78 °F
Forecast: 59 / 72 °F
Wind: 7 mph from North

Location: Frankfurt-M-Flughafen Airport

Current Time: May 28, 2016 at 3:43:16 PM

Latest Report: May 28, 2016 at 3:20 PM


Visibility: N/A

Pressure: 29.86 "Hg

Humidity: 50%

Dew Point: 55 °F

Location of DietzenbachLocation

Past Weather in Dietzenbach — Graph

°F

Dietzenbach Temperature Yesterday

Maximum temperature yesterday: 73 °F (at 2:50 PM)
Minimum temperature yesterday: 57 °F (at 4:20 AM)
Average temperature yesterday: 64 °F

High & Low Weather Summary for the Past Weeks

 TemperatureHumidityPressure
High81 °F (May 22, 3:20 PM)100% (May 13, 11:50 PM)30.12 "Hg (May 13, 11:50 PM)
Low41 °F (May 15, 5:50 AM)24% (May 22, 3:50 PM)29.53 "Hg (May 13, 2:20 PM)
Average57 °F69%29.95 "Hg
* Reported May 13 2:20 PM — May 28 2:20 PM, Dietzenbach, Weather by CustomWeather, © 2016

Note: Actual official high and low records may vary slightly from our data, if they occured in-between our weather recording intervals... More about our weather records

Advertising

Dietzenbach Weather History for the Previous 24 Hours

Scroll right to see more
 ConditionsComfort  
Time TempWeatherWind HumidityBarometerVisibility
2:20 PM
Sat, May 28
75 °FScattered showers. Scattered clouds.3 mph54%29.86 "HgN/A
1:50 PM75 °FScattered clouds.5 mph54%29.89 "HgN/A
1:20 PM75 °FScattered clouds.5 mph54%29.89 "HgN/A
12:50 PM75 °FScattered clouds.5 mph57%29.89 "HgN/A
12:20 PM73 °FScattered clouds.6 mph61%29.92 "HgN/A
11:50 AM72 °FScattered clouds.6 mph61%29.92 "HgN/A
11:20 AM70 °FScattered clouds.7 mph69%29.92 "HgN/A
10:50 AM70 °FScattered clouds.6 mph69%29.92 "HgN/A
10:20 AM68 °FScattered clouds.5 mph73%29.92 "HgN/A
9:50 AM66 °FPassing clouds.5 mph78%29.92 "HgN/A
9:20 AM64 °FScattered clouds.7 mph83%29.92 "HgN/A
8:50 AM63 °FScattered clouds.6 mph88%29.92 "Hg5 mi
8:20 AM63 °FScattered clouds.7 mph88%29.92 "Hg4 mi
7:50 AM61 °FScattered clouds.7 mph88%29.95 "Hg4 mi
7:20 AM59 °FScattered clouds.7 mph88%29.95 "Hg4 mi
6:50 AM57 °FFog.6 mph94%29.95 "Hg4 mi
6:20 AM57 °FFog.6 mph94%29.95 "Hg4 mi
5:50 AM57 °FFog.2 mph94%29.95 "Hg4 mi
5:20 AM57 °FFog.3 mph94%29.95 "Hg4 mi
4:50 AM57 °FFog.3 mph94%29.95 "Hg5 mi
4:20 AM57 °FFog.5 mph94%29.95 "HgN/A
3:50 AM55 °FFog.5 mph100%29.95 "HgN/A
3:20 AM57 °FFog.5 mph94%29.95 "HgN/A
2:50 AM55 °FFog.5 mph94%29.95 "HgN/A
2:20 AM57 °FFog.6 mph94%29.95 "HgN/A
1:50 AM55 °FFog.3 mph94%29.95 "HgN/A
1:20 AM57 °FFog.3 mph94%29.95 "HgN/A
12:50 AM57 °FFog.3 mph94%29.95 "HgN/A
12:20 AM57 °FFog.3 mph94%29.95 "HgN/A
11:50 PM
Fri, May 27
57 °FFog.2 mph94%29.95 "HgN/A
11:20 PM59 °FFog.1 mph94%29.95 "HgN/A
10:50 PM59 °FPassing clouds.5 mph94%29.98 "HgN/A
10:20 PM59 °FPartly sunny.3 mph94%29.98 "HgN/A
9:50 PM61 °FPartly sunny.3 mph88%29.95 "HgN/A
9:20 PM61 °FBroken clouds.5 mph88%29.95 "HgN/A
8:50 PM63 °FBroken clouds.7 mph83%29.95 "HgN/A
8:20 PM63 °FThundershowers. Broken clouds.9 mph77%29.95 "Hg4 mi
7:50 PM63 °FThunderstorms. Partly sunny.16 mph77%29.95 "Hg4 mi
7:20 PM64 °FThunderstorms. Broken clouds.20 mph73%29.98 "HgN/A
6:50 PM72 °FThundershowers. Broken clouds.7 mph61%29.92 "HgN/A
6:20 PM72 °FScattered showers. Partly sunny.7 mph61%29.92 "HgN/A
5:50 PM73 °FPartly sunny.7 mph57%29.92 "HgN/A
5:20 PM73 °FPartly sunny.6 mph57%29.95 "HgN/A
4:50 PM73 °FBroken clouds.2 mph57%29.95 "HgN/A
4:20 PM73 °FPartly sunny.5 mph57%29.95 "HgN/A
3:50 PM73 °FPartly sunny.5 mph57%29.95 "HgN/A
3:20 PM72 °FPartly sunny.3 mph57%29.95 "HgN/A
Weather by CustomWeather, © 2016

See weather overviewHow to use our weather pages